Location: Newark
(55.2875°N, 3.1864°W)
Time: 06:40:16
(UTC+00:00)

ISS - Pass Details

Date: 29 January 2020
Orbit: 415 x 423 km, 51.6° (Epoch: 28 February)

Event Time Altitude Azimuth Distance (km) Brightness Sun altitude
Rises 18:10:24 0° 251° (WSW) 2,380 2.1 -12.5°
Reaches altitude 10° 18:12:33 10° 245° (WSW) 1,514 0.5 -12.8°
Maximum altitude 18:15:47 42° 173° (S) 614 -2.9 -13.3°
Enters shadow 18:17:41 21° 111° (ESE) 1,016 -2.3 -13.5°
